LTG1F SBKP-SBGL

Flight info

Callsign LTG1F
Flight time 0h 40m
Altitude 27000
Route UREMI UZ42 VUREP
Aircraft B77L/H-SDE1E2E3FGHIJ2J3J4J5M1RWXY/LB1D1

Departure

Time 2026-04-30 19:55
Airport Viracopos International Airport (SBKP)

Arrival

Time 2026-04-30 20:35
Airport Rio Galeão – Tom Jobim International Airport (SBGL)
Time Latitude Longitude Altitude Speed Heading
2026-04-30 19:22 -23.00505 -47.14419 2155 ft 0 kts 211°
2026-04-30 19:34 -23.00504 -47.14419 2155 ft 0 kts 211°
2026-04-30 19:45 -23.00504 -47.14418 2155 ft 0 kts 212°
2026-04-30 19:48 -23.00504 -47.14419 2155 ft 1 kts 212°
2026-04-30 19:48 -23.00505 -47.14432 2148 ft 2 kts 278°
2026-04-30 19:48 -23.00492 -47.14438 2147 ft 2 kts 356°
2026-04-30 19:48 -23.00479 -47.14428 2150 ft 2 kts 37°
2026-04-30 19:49 -23.00467 -47.14415 2148 ft 2 kts 47°
2026-04-30 19:49 -23.00399 -47.14406 2150 ft 8 kts 307°
2026-04-30 19:49 -23.00366 -47.14453 2149 ft 8 kts 307°
2026-04-30 19:50 -23.00331 -47.14503 2147 ft 8 kts 308°
2026-04-30 19:50 -23.00295 -47.14552 2147 ft 8 kts 308°
2026-04-30 19:50 -23.00259 -47.14601 2148 ft 8 kts 308°
2026-04-30 19:50 -23.00221 -47.14653 2145 ft 10 kts 308°
2026-04-30 19:51 -23.00179 -47.14710 2149 ft 10 kts 309°
2026-04-30 19:51 -23.00120 -47.14738 2150 ft 10 kts
2026-04-30 19:51 -23.00057 -47.14715 2149 ft 10 kts 32°
2026-04-30 19:51 -23.00007 -47.14667 2149 ft 10 kts 51°
2026-04-30 19:52 -22.99966 -47.14609 2148 ft 10 kts 62°
2026-04-30 19:52 -22.99964 -47.14538 2146 ft 10 kts 116°
2026-04-30 19:52 -22.99992 -47.14494 2149 ft 0 kts 130°
2026-04-30 19:53 -22.99992 -47.14493 2149 ft 1 kts 130°
2026-04-30 19:54 -23.00042 -47.14425 2148 ft 26 kts 127°
2026-04-30 19:54 -23.00288 -47.14080 2152 ft 92 kts 128°
2026-04-30 19:54 -23.00811 -47.13349 2155 ft 150 kts 128°
2026-04-30 19:54 -23.01522 -47.12352 2344 ft 174 kts 127°
2026-04-30 19:55 -23.02266 -47.11294 2848 ft 183 kts 131°
2026-04-30 19:55 -23.03080 -47.10206 3467 ft 182 kts 129°
2026-04-30 19:55 -23.03862 -47.09084 3966 ft 188 kts 128°
2026-04-30 19:55 -23.04706 -47.08025 4494 ft 186 kts 144°
2026-04-30 19:56 -23.05814 -47.07334 5050 ft 179 kts 153°
2026-04-30 19:56 -23.06945 -47.06790 5592 ft 177 kts 161°
2026-04-30 19:56 -23.08129 -47.06381 6004 ft 183 kts 159°
2026-04-30 19:56 -23.09329 -47.05778 6255 ft 195 kts 152°
2026-04-30 19:57 -23.10503 -47.05083 6751 ft 193 kts 153°
2026-04-30 19:57 -23.11686 -47.04411 7229 ft 189 kts 147°
2026-04-30 19:57 -23.12795 -47.03604 7631 ft 190 kts 146°
2026-04-30 19:57 -23.13832 -47.02756 8078 ft 188 kts 148°
2026-04-30 19:58 -23.14986 -47.01986 8171 ft 206 kts 147°
2026-04-30 19:58 -23.16243 -47.01156 8408 ft 218 kts 153°
2026-04-30 19:58 -23.17652 -47.00338 8545 ft 241 kts 149°
2026-04-30 19:58 -23.19161 -46.99420 8762 ft 258 kts 152°
2026-04-30 19:59 -23.20782 -46.98427 9020 ft 275 kts 151°
2026-04-30 19:59 -23.22483 -46.97452 9554 ft 283 kts 157°
2026-04-30 19:59 -23.26217 -46.95580 10647 ft 301 kts 152°
2026-04-30 20:00 -23.28084 -46.94537 11320 ft 305 kts 156°
2026-04-30 20:00 -23.30073 -46.93508 11616 ft 329 kts 156°
2026-04-30 20:00 -23.32152 -46.92361 11782 ft 352 kts 147°
2026-04-30 20:00 -23.33891 -46.90389 12083 ft 370 kts 122°
2026-04-30 20:01 -23.36510 -46.85373 13375 ft 387 kts 120°
2026-04-30 20:01 -23.37846 -46.82815 14221 ft 390 kts 121°
2026-04-30 20:01 -23.39213 -46.80231 14870 ft 397 kts 122°
2026-04-30 20:02 -23.42045 -46.74954 16221 ft 407 kts 121°
2026-04-30 20:02 -23.43489 -46.72281 16920 ft 412 kts 121°
2026-04-30 20:03 -23.46436 -46.66834 18280 ft 423 kts 121°
2026-04-30 20:03 -23.47918 -46.64095 18941 ft 425 kts 121°
2026-04-30 20:03 -23.49427 -46.61305 19533 ft 430 kts 121°
2026-04-30 20:03 -23.50960 -46.58469 20050 ft 437 kts 121°
2026-04-30 20:04 -23.52513 -46.55590 20533 ft 444 kts 121°
2026-04-30 20:04 -23.54091 -46.52667 21049 ft 449 kts 122°
2026-04-30 20:04 -23.55670 -46.49750 21597 ft 455 kts 122°
2026-04-30 20:05 -23.58482 -46.43518 22519 ft 466 kts 102°
2026-04-30 20:05 -23.58717 -46.39976 22988 ft 472 kts 84°
2026-04-30 20:05 -23.57271 -46.33034 23963 ft 475 kts 74°
2026-04-30 20:06 -23.56444 -46.29543 24581 ft 473 kts 74°
2026-04-30 20:06 -23.55632 -46.26063 25070 ft 475 kts 74°
2026-04-30 20:06 -23.54827 -46.22555 25113 ft 475 kts 75°
2026-04-30 20:06 -23.54040 -46.19061 25112 ft 473 kts 75°
2026-04-30 20:07 -23.53275 -46.15624 25106 ft 472 kts 75°
2026-04-30 20:07 -23.52503 -46.12142 25112 ft 476 kts 75°
2026-04-30 20:07 -23.50917 -46.04979 25341 ft 494 kts 75°
2026-04-30 20:08 -23.50106 -46.01323 25706 ft 498 kts 75°
2026-04-30 20:08 -23.49288 -45.97646 26197 ft 499 kts 75°
2026-04-30 20:08 -23.48469 -45.93974 26550 ft 499 kts 75°
2026-04-30 20:08 -23.47646 -45.90286 26783 ft 502 kts 75°
2026-04-30 20:09 -23.46818 -45.86586 26949 ft 505 kts 75°
2026-04-30 20:09 -23.45993 -45.82897 27039 ft 508 kts 75°
2026-04-30 20:09 -23.44318 -45.75418 27109 ft 506 kts 75°
2026-04-30 20:10 -23.42657 -45.68011 27091 ft 494 kts 75°
2026-04-30 20:10 -23.41854 -45.64438 27096 ft 489 kts 75°
2026-04-30 20:10 -23.41045 -45.60843 27095 ft 487 kts 75°
2026-04-30 20:11 -23.39432 -45.53687 27107 ft 484 kts 75°
2026-04-30 20:11 -23.38629 -45.50120 27089 ft 484 kts 75°
2026-04-30 20:11 -23.37865 -45.46596 27103 ft 483 kts 76°
2026-04-30 20:12 -23.36361 -45.39442 27105 ft 484 kts 76°
2026-04-30 20:12 -23.35606 -45.35868 27089 ft 484 kts 76°
2026-04-30 20:12 -23.34842 -45.32291 27101 ft 484 kts 76°
2026-04-30 20:13 -23.34074 -45.28719 27098 ft 485 kts 76°
2026-04-30 20:13 -23.33310 -45.25188 27088 ft 485 kts 76°
2026-04-30 20:13 -23.32535 -45.21607 27097 ft 485 kts 76°
2026-04-30 20:13 -23.31759 -45.18022 27097 ft 485 kts 76°
2026-04-30 20:14 -23.30987 -45.14449 27102 ft 485 kts 76°
2026-04-30 20:14 -23.30213 -45.10873 27098 ft 485 kts 76°
2026-04-30 20:14 -23.29451 -45.07346 27107 ft 484 kts 76°
2026-04-30 20:14 -23.28684 -45.03797 27076 ft 473 kts 75°
2026-04-30 20:15 -23.27943 -45.00367 27083 ft 458 kts 75°
2026-04-30 20:15 -23.27219 -44.97026 26917 ft 449 kts 75°
2026-04-30 20:15 -23.26512 -44.93769 26480 ft 446 kts 75°
2026-04-30 20:15 -23.25804 -44.90502 26116 ft 442 kts 75°
2026-04-30 20:16 -23.25095 -44.87254 25694 ft 440 kts 75°
2026-04-30 20:16 -23.24388 -44.84017 25261 ft 438 kts 75°
2026-04-30 20:16 -23.23687 -44.80797 24849 ft 437 kts 75°
2026-04-30 20:16 -23.22986 -44.77586 24400 ft 436 kts 75°
2026-04-30 20:17 -23.22290 -44.74391 23995 ft 435 kts 75°
2026-04-30 20:17 -23.21591 -44.71177 23545 ft 434 kts 75°
2026-04-30 20:17 -23.20902 -44.68021 23065 ft 432 kts 75°
2026-04-30 20:17 -23.20208 -44.64850 22633 ft 429 kts 75°
2026-04-30 20:18 -23.19519 -44.61704 22206 ft 426 kts 76°
2026-04-30 20:18 -23.18861 -44.58571 21795 ft 423 kts 76°
2026-04-30 20:18 -23.18433 -44.56507 21511 ft 421 kts 76°
2026-04-30 20:18 -23.17606 -44.53466 21087 ft 416 kts 66°
2026-04-30 20:19 -23.15977 -44.49719 20553 ft 411 kts 61°
2026-04-30 20:19 -23.15099 -44.47853 20283 ft 410 kts 61°
2026-04-30 20:19 -23.13817 -44.45136 19865 ft 407 kts 61°
2026-04-30 20:19 -23.12544 -44.42395 19459 ft 405 kts 62°
2026-04-30 20:20 -23.11293 -44.39647 19047 ft 404 kts 63°
2026-04-30 20:20 -23.10062 -44.36905 18630 ft 402 kts 63°
2026-04-30 20:20 -23.08850 -44.34180 18186 ft 400 kts 63°
2026-04-30 20:20 -23.07646 -44.31459 17741 ft 398 kts 63°
2026-04-30 20:21 -23.06454 -44.28763 17320 ft 394 kts 63°
2026-04-30 20:21 -23.05269 -44.26085 16909 ft 391 kts 63°
2026-04-30 20:21 -23.04111 -44.23469 16510 ft 388 kts 63°
2026-04-30 20:21 -23.02947 -44.20841 16091 ft 384 kts 63°
2026-04-30 20:22 -23.01791 -44.18234 15707 ft 381 kts 63°
2026-04-30 20:22 -23.00646 -44.15653 15312 ft 378 kts 63°
2026-04-30 20:22 -22.99505 -44.13085 14920 ft 375 kts 63°
2026-04-30 20:22 -22.98379 -44.10545 14529 ft 372 kts 63°
2026-04-30 20:23 -22.97262 -44.08026 14125 ft 369 kts 63°
2026-04-30 20:23 -22.96164 -44.05555 13713 ft 366 kts 63°
2026-04-30 20:23 -22.95061 -44.03072 13292 ft 363 kts 63°
2026-04-30 20:23 -22.93968 -44.00618 12899 ft 360 kts 63°
2026-04-30 20:24 -22.92882 -43.98184 12510 ft 356 kts 63°
2026-04-30 20:24 -22.91817 -43.95796 12341 ft 344 kts 63°
2026-04-30 20:24 -22.90792 -43.93501 12248 ft 329 kts 63°
2026-04-30 20:24 -22.89828 -43.91340 11912 ft 318 kts 62°
2026-04-30 20:25 -22.87942 -43.87098 11065 ft 307 kts 62°
2026-04-30 20:25 -22.87007 -43.84997 10476 ft 313 kts 63°
2026-04-30 20:26 -22.85122 -43.80771 10012 ft 309 kts 63°
2026-04-30 20:26 -22.83252 -43.76582 9412 ft 308 kts 63°
2026-04-30 20:26 -22.82318 -43.74495 9180 ft 305 kts 63°
2026-04-30 20:27 -22.80651 -43.70408 8836 ft 297 kts 74°
2026-04-30 20:27 -22.79714 -43.66050 8123 ft 294 kts 77°
2026-04-30 20:28 -22.78786 -43.61899 7427 ft 272 kts 76°
2026-04-30 20:28 -22.77789 -43.57975 6828 ft 273 kts 65°
2026-04-30 20:29 -22.75817 -43.54413 6032 ft 277 kts 58°
2026-04-30 20:30 -22.72875 -43.49421 5046 ft 253 kts 58°
2026-04-30 20:30 -22.71708 -43.44439 4862 ft 238 kts 87°
2026-04-30 20:31 -22.71334 -43.39306 4651 ft 218 kts 84°
2026-04-30 20:32 -22.71226 -43.34286 4425 ft 232 kts 112°
2026-04-30 20:32 -22.73371 -43.32056 3443 ft 206 kts 153°
2026-04-30 20:33 -22.74633 -43.31431 2922 ft 194 kts 154°
2026-04-30 20:33 -22.76978 -43.30426 2032 ft 169 kts 165°
2026-04-30 20:33 -22.78104 -43.30168 1468 ft 161 kts 165°
2026-04-30 20:34 -22.79698 -43.28521 760 ft 160 kts 134°
2026-04-30 20:34 -22.81038 -43.26667 164 ft 150 kts 127°
2026-04-30 20:35 -22.81664 -43.25726 35 ft 152 kts 127°
2026-04-30 20:35 -22.82217 -43.24899 26 ft 117 kts 126°
2026-04-30 20:35 -22.82646 -43.24253 29 ft 17 kts 126°
2026-04-30 20:36 -22.82703 -43.24215 27 ft 0 kts 159°
2026-04-30 20:36 -22.82714 -43.24211 27 ft 8 kts 157°
2026-04-30 20:36 -22.82854 -43.24142 27 ft 12 kts 156°
2026-04-30 20:37 -22.82892 -43.24124 30 ft 0 kts 157°
2026-04-30 20:37 -22.82895 -43.24123 30 ft 1 kts 157°
2026-04-30 20:37 -22.82906 -43.24125 29 ft 3 kts 194°
2026-04-30 20:38 -22.82920 -43.24149 30 ft 4 kts 240°
2026-04-30 20:38 -22.82939 -43.24170 28 ft 4 kts 220°
2026-04-30 20:38 -22.82962 -43.24188 26 ft 4 kts 215°
2026-04-30 20:39 -22.82983 -43.24204 26 ft 0 kts 215°